Torna al catalogo

INTELSAT 4

PAS 4

AttivoComunicazioniGEO
NORAD 23636·PAYLOAD· XX

Lanciato Aug 3, 1995 da Guiana Space Centre

Loading…

TLE

AggiornatoSource: Space-Track

Epoca: Sep 14, 2026, 03:34 UTC

1 23636U 95040A   26257.14897707 -.00000143  00000-0  00000-0 0  9992
2 23636  12.1392  39.6622 0028423 231.7963 143.3379  0.97128323112018

Traccia INTELSAT 4 in tempo reale con AllMySat

Download on the App Store